ALK504 EGLL-VCBI

Flight info

Callsign ALK504
Flight time N/A
Altitude 35000
Route DET L6 DVR L9 KONAN UL607 KOK DCT SISGA DCT KOMOB M150 PITES DCT EDISA DCT PICWI DCT BATUB DCT DIRAB DCT VESAL DCT PEVAL DCT NAKIT DCT VAKSU/N0467F370 DCT KOFER DCT PINDO DCT PAXIS DCT OBRAN L321 REXUM M872 FYM/N0469F390 M872 BDB Y214 RAPMA DCT ULONO DCT DAPOL L692 GISKA N569 LOTAV M300 VASTU P895 BIKOK BIKOK1A
Aircraft A333/H-SDE3GHIJ2J3J5M1RVWXY/LB2D1

Departure

Time 2026-05-04 10:25
Airport London Heathrow Airport (EGLL)

Arrival

Time N/A
Airport Bandaranaike International Colombo Airport (VCBI)
Time Latitude Longitude Altitude Speed Heading
2026-05-04 09:53 51.47268 -0.46301 93 ft 0 kts 56°
2026-05-04 10:10 51.47265 -0.46309 92 ft 3 kts 56°
2026-05-04 10:10 51.47254 -0.46334 92 ft 3 kts 56°
2026-05-04 10:10 51.47244 -0.46360 90 ft 3 kts 48°
2026-05-04 10:10 51.47228 -0.46378 91 ft 3 kts 10°
2026-05-04 10:11 51.47209 -0.46384 90 ft 3 kts 351°
2026-05-04 10:11 51.47194 -0.46375 91 ft 0 kts 329°
2026-05-04 10:14 51.47198 -0.46379 90 ft 3 kts 328°
2026-05-04 10:16 51.46981 -0.46649 95 ft 17 kts 144°
2026-05-04 10:16 51.46883 -0.46543 93 ft 12 kts 148°
2026-05-04 10:16 51.46823 -0.46480 94 ft 11 kts 146°
2026-05-04 10:16 51.46752 -0.46359 95 ft 19 kts 105°
2026-05-04 10:17 51.46742 -0.46120 90 ft 24 kts 83°
2026-05-04 10:17 51.46747 -0.45840 95 ft 25 kts 90°
2026-05-04 10:19 51.46750 -0.44105 94 ft 12 kts 106°
2026-05-04 10:19 51.46690 -0.44044 93 ft 9 kts 150°
2026-05-04 10:19 51.46668 -0.43958 92 ft 9 kts 95°
2026-05-04 10:19 51.46657 -0.43867 94 ft 8 kts 108°
2026-05-04 10:20 51.46637 -0.43842 93 ft 0 kts 161°
2026-05-04 10:20 51.46631 -0.43839 93 ft 3 kts 164°
2026-05-04 10:20 51.46621 -0.43837 94 ft 1 kts 171°
2026-05-04 10:20 51.46610 -0.43834 92 ft 1 kts 173°
2026-05-04 10:21 51.46604 -0.43833 92 ft 1 kts 173°
2026-05-04 10:21 51.46586 -0.43831 91 ft 3 kts 176°
2026-05-04 10:21 51.46563 -0.43832 89 ft 4 kts 180°
2026-05-04 10:21 51.46526 -0.43833 89 ft 6 kts 181°
2026-05-04 10:22 51.46491 -0.43905 93 ft 9 kts 272°
2026-05-04 10:22 51.46492 -0.43931 90 ft 0 kts 271°
2026-05-04 10:25 51.46027 -0.53681 1751 ft 210 kts 230°
2026-05-04 10:25 51.44692 -0.54773 1986 ft 230 kts 180°
2026-05-04 10:25 51.43064 -0.54523 2344 ft 247 kts 165°
2026-05-04 10:25 51.41505 -0.53355 2883 ft 249 kts 136°
2026-05-04 10:26 51.40360 -0.51252 3551 ft 252 kts 125°
2026-05-04 10:26 51.39272 -0.49057 4305 ft 250 kts 131°
2026-05-04 10:26 51.38075 -0.47041 5069 ft 249 kts 136°
2026-05-04 10:26 51.36856 -0.45084 5705 ft 253 kts 134°
2026-05-04 10:27 51.35618 -0.42970 6083 ft 265 kts 134°
2026-05-04 10:27 51.34349 -0.40776 6653 ft 270 kts 133°
2026-05-04 10:27 51.33087 -0.38569 7130 ft 272 kts 133°
2026-05-04 10:27 51.31898 -0.36188 7486 ft 273 kts 116°
2026-05-04 10:28 51.31549 -0.33251 7908 ft 277 kts 88°
2026-05-04 10:28 51.31728 -0.30127 8139 ft 282 kts 88°
2026-05-04 10:28 51.31777 -0.27000 8506 ft 283 kts 91°
2026-05-04 10:28 51.31766 -0.23832 8984 ft 285 kts 92°
2026-05-04 10:29 51.31737 -0.20641 9488 ft 288 kts 92°
2026-05-04 10:29 51.31698 -0.17417 9991 ft 290 kts 92°
2026-05-04 10:29 51.31656 -0.14180 10450 ft 298 kts 93°
2026-05-04 10:29 51.31609 -0.10827 10926 ft 306 kts 93°
2026-05-04 10:30 51.31560 -0.07369 11407 ft 313 kts 93°
2026-05-04 10:30 51.31511 -0.03837 11873 ft 321 kts 93°
2026-05-04 10:30 51.31456 -0.00204 12178 ft 335 kts 93°
2026-05-04 10:30 51.31397 0.03613 12434 ft 350 kts 92°
2026-05-04 10:31 51.31335 0.07557 12688 ft 364 kts 92°
2026-05-04 10:31 51.31269 0.11692 12935 ft 377 kts 92°
2026-05-04 10:32 51.30261 0.37605 14780 ft 395 kts 105°
2026-05-04 10:33 51.29542 0.41855 15058 ft 396 kts 108°
2026-05-04 10:33 51.28726 0.46075 15363 ft 398 kts 109°
2026-05-04 10:33 51.27844 0.50336 15670 ft 406 kts 110°
2026-05-04 10:33 51.26946 0.54566 15978 ft 408 kts 110°
2026-05-04 10:34 51.26031 0.58855 16295 ft 407 kts 110°
2026-05-04 10:34 51.25117 0.63160 16602 ft 407 kts 110°
2026-05-04 10:34 51.24822 0.64555 16700 ft 406 kts 110°
2026-05-04 10:34 51.23322 0.71686 17229 ft 406 kts 110°
2026-05-04 10:35 51.22417 0.76000 17533 ft 412 kts 110°
2026-05-04 10:35 51.21509 0.80327 17829 ft 417 kts 110°
2026-05-04 10:35 51.20586 0.84726 18133 ft 417 kts 110°
2026-05-04 10:35 51.19665 0.89112 18418 ft 417 kts 110°
2026-05-04 10:36 51.18743 0.93489 18681 ft 416 kts 110°
2026-05-04 10:36 51.17816 0.97876 18943 ft 416 kts 110°
2026-05-04 10:36 51.16891 1.02243 19212 ft 416 kts 110°
2026-05-04 10:36 51.15970 1.06581 19478 ft 416 kts 110°
2026-05-04 10:37 51.15033 1.10981 19753 ft 421 kts 110°
2026-05-04 10:37 51.14403 1.13927 19933 ft 425 kts 110°
2026-05-04 10:37 51.13125 1.19902 20302 ft 432 kts 111°
2026-05-04 10:37 51.12468 1.22970 20484 ft 433 kts 111°
2026-05-04 10:39 50.84684 2.38052 20743 ft 0 kts 111°
2026-05-04 10:40 50.85025 2.36652 20743 ft 0 kts 111°
2026-05-04 10:40 50.84293 2.38753 20563 ft 440 kts 110°
2026-05-04 10:41 50.83656 2.43506 20667 ft 444 kts 102°
2026-05-04 10:41 50.83248 2.48283 20970 ft 443 kts 99°
2026-05-04 10:41 50.82819 2.53119 21317 ft 442 kts 103°
2026-05-04 10:41 50.82087 2.57819 21649 ft 439 kts 112°
2026-05-04 10:42 50.81040 2.62354 22074 ft 439 kts 115°
2026-05-04 10:42 50.79885 2.66837 22487 ft 439 kts 116°
2026-05-04 10:42 50.78674 2.71217 22937 ft 439 kts 118°
2026-05-04 10:42 50.77412 2.75623 23389 ft 440 kts 118°
2026-05-04 10:43 50.76134 2.80018 23780 ft 440 kts 119°
2026-05-04 10:44 50.67242 3.10652 26481 ft 436 kts 120°
2026-05-04 10:45 50.65976 3.15007 26899 ft 435 kts 120°
2026-05-04 10:45 50.64725 3.19300 27163 ft 438 kts 120°
2026-05-04 10:45 50.63439 3.23699 27331 ft 443 kts 120°
2026-05-04 10:45 50.62143 3.28120 27506 ft 447 kts 120°
2026-05-04 10:46 50.60829 3.32601 27697 ft 451 kts 120°
2026-05-04 10:46 50.59508 3.37095 27873 ft 455 kts 121°
2026-05-04 10:46 50.58167 3.41653 28064 ft 459 kts 121°
2026-05-04 10:46 50.56836 3.46174 28259 ft 463 kts 121°
2026-05-04 10:47 50.55477 3.50780 28441 ft 466 kts 121°
2026-05-04 10:47 50.54111 3.55402 28649 ft 467 kts 121°
2026-05-04 10:47 50.52736 3.60053 28839 ft 468 kts 121°
2026-05-04 10:47 50.51354 3.64708 29034 ft 472 kts 121°
2026-05-04 10:49 50.41352 3.98135 30372 ft 491 kts 121°
2026-05-04 10:49 50.39909 4.02925 30552 ft 491 kts 121°
2026-05-04 10:50 50.38446 4.07775 30717 ft 491 kts 121°
2026-05-04 10:51 50.28129 4.41657 32035 ft 492 kts 122°
2026-05-04 10:52 50.26638 4.46513 32218 ft 493 kts 122°
2026-05-04 10:52 50.25153 4.51340 32415 ft 493 kts 122°
2026-05-04 10:52 50.23680 4.56119 32592 ft 493 kts 122°
2026-05-04 10:54 50.13270 4.89641 34349 ft 486 kts 122°
2026-05-04 10:54 50.11799 4.94341 34596 ft 485 kts 122°
2026-05-04 10:56 50.01321 5.27546 34996 ft 490 kts 122°
2026-05-04 10:56 49.99816 5.32281 34999 ft 490 kts 122°
2026-05-04 10:57 49.96796 5.41757 34997 ft 489 kts 122°
2026-05-04 10:57 49.93781 5.51178 34992 ft 490 kts 122°
2026-05-04 10:58 49.90739 5.60648 34992 ft 490 kts 122°
2026-05-04 10:58 49.87692 5.70099 35000 ft 490 kts 122°
2026-05-04 10:59 49.84643 5.79520 35004 ft 490 kts 122°
2026-05-04 10:59 49.81585 5.88934 35001 ft 490 kts 122°
2026-05-04 11:00 49.78510 5.98361 35012 ft 490 kts 122°
2026-05-04 11:02 49.66146 6.35924 35016 ft 491 kts 122°
2026-05-04 11:05 49.42564 7.06058 35006 ft 493 kts 123°
2026-05-04 11:06 49.39372 7.15405 34990 ft 493 kts 122°
2026-05-04 11:06 49.36159 7.24776 35010 ft 495 kts 123°
2026-05-04 11:10 49.13547 7.89790 35017 ft 495 kts 123°
2026-05-04 11:12 49.00454 8.26701 35007 ft 495 kts 123°
2026-05-04 11:12 48.97150 8.35937 35013 ft 495 kts 123°
2026-05-04 11:13 48.93844 8.45158 35010 ft 495 kts 123°
2026-05-04 11:13 48.90551 8.54325 35010 ft 495 kts 123°
2026-05-04 11:16 48.73879 9.00054 34996 ft 493 kts 129°
2026-05-04 11:16 48.69335 9.07580 34990 ft 482 kts 143°
2026-05-04 11:17 48.63879 9.13319 34993 ft 472 kts 160°
2026-05-04 11:19 48.39747 9.29147 35003 ft 474 kts 160°
2026-05-04 11:19 48.33695 9.33094 34999 ft 474 kts 160°
2026-05-04 11:20 48.27685 9.37010 34998 ft 474 kts 160°
2026-05-04 11:20 48.21624 9.40947 34998 ft 474 kts 160°
2026-05-04 11:22 48.01618 9.57082 34955 ft 477 kts 128°
2026-05-04 11:22 47.99488 9.60844 34979 ft 473 kts 143°
2026-05-04 11:23 47.94260 9.66802 35076 ft 477 kts 144°
2026-05-04 11:25 47.76523 9.89786 34989 ft 485 kts 141°
2026-05-04 11:25 47.71485 9.96493 34993 ft 485 kts 142°
2026-05-04 11:27 47.49666 10.25261 35013 ft 485 kts 142°
2026-05-04 11:28 47.44597 10.31886 35014 ft 485 kts 142°
2026-05-04 11:28 47.39531 10.38488 35029 ft 485 kts 142°
2026-05-04 11:29 47.34481 10.45043 35023 ft 485 kts 142°
2026-05-04 11:29 47.29382 10.51593 35044 ft 485 kts 142°
2026-05-04 11:33 46.93133 10.95264 34739 ft 465 kts 157°
2026-05-04 11:33 46.90332 10.97507 35688 ft 451 kts 150°
2026-05-04 11:33 46.87746 10.99962 36228 ft 443 kts 149°
2026-05-04 11:34 46.85174 11.02454 36416 ft 444 kts 149°
2026-05-04 11:34 46.82576 11.04994 36294 ft 451 kts 149°
2026-05-04 11:34 46.79949 11.07573 36137 ft 459 kts 148°
2026-05-04 11:34 46.77428 11.10480 36011 ft 469 kts 137°
2026-05-04 11:35 46.75406 11.14285 35883 ft 481 kts 121°
2026-05-04 11:35 46.74045 11.18784 35756 ft 490 kts 112°
2026-05-04 11:35 46.72891 11.23500 35614 ft 495 kts 110°
2026-05-04 11:35 46.71559 11.28024 35705 ft 487 kts 125°
2026-05-04 11:36 46.69721 11.32222 34687 ft 494 kts 120°
2026-05-04 11:36 46.68425 11.36755 35122 ft 476 kts 115°
2026-05-04 11:36 46.66927 11.41023 35326 ft 472 kts 126°
2026-05-04 11:36 46.64890 11.44793 35201 ft 476 kts 135°
2026-05-04 11:37 46.62593 11.48309 35070 ft 482 kts 136°
2026-05-04 11:37 46.60261 11.51760 35059 ft 485 kts 137°
2026-05-04 11:37 46.55099 11.58118 35052 ft 484 kts 148°
2026-05-04 11:38 46.49425 11.63315 35052 ft 482 kts 152°
2026-05-04 11:38 46.43637 11.68185 35066 ft 482 kts 151°
2026-05-04 11:39 46.38101 11.73686 35081 ft 484 kts 144°
2026-05-04 11:41 46.21148 11.97562 35090 ft 487 kts 137°
2026-05-04 11:41 46.16386 12.04479 35083 ft 487 kts 137°
2026-05-04 11:42 46.11580 12.11406 35087 ft 488 kts 137°
2026-05-04 11:42 46.06778 12.18304 35087 ft 488 kts 137°
2026-05-04 11:43 46.01949 12.25228 35104 ft 488 kts 137°
2026-05-04 11:43 45.97156 12.32085 35099 ft 488 kts 137°
2026-05-04 11:44 45.92333 12.38964 35096 ft 489 kts 137°
2026-05-04 11:44 45.87502 12.45835 35094 ft 490 kts 137°
2026-05-04 11:45 45.82639 12.52736 35101 ft 490 kts 137°
2026-05-04 11:45 45.77810 12.59572 35092 ft 490 kts 137°
2026-05-04 11:46 45.72949 12.66434 35081 ft 490 kts 137°
2026-05-04 11:46 45.68063 12.73313 35086 ft 492 kts 137°
2026-05-04 11:47 45.63186 12.80164 35101 ft 492 kts 137°
2026-05-04 11:47 45.58317 12.86987 35102 ft 491 kts 137°
2026-05-04 11:48 45.53442 12.93798 35103 ft 491 kts 137°
2026-05-04 11:48 45.48548 13.00617 35085 ft 493 kts 137°
2026-05-04 11:49 45.43623 13.07463 35105 ft 494 kts 137°
2026-05-04 11:49 45.38711 13.14275 35084 ft 493 kts 137°
2026-05-04 11:50 45.33818 13.21043 35101 ft 493 kts 137°
2026-05-04 11:50 45.28985 13.28003 35104 ft 495 kts 134°
2026-05-04 11:51 45.24454 13.35362 35102 ft 497 kts 132°
2026-05-04 11:51 45.19943 13.42842 35105 ft 497 kts 132°
2026-05-04 11:52 45.15531 13.50345 35107 ft 497 kts 130°
2026-05-04 11:52 45.11192 13.57982 35105 ft 497 kts 130°
2026-05-04 11:53 45.06858 13.65592 35115 ft 499 kts 130°
2026-05-04 11:53 45.02471 13.73231 35112 ft 499 kts 130°
2026-05-04 11:55 44.84847 14.03620 35129 ft 501 kts 130°
2026-05-04 11:56 44.80428 14.11188 35121 ft 501 kts 130°
2026-05-04 11:56 44.76009 14.18738 35119 ft 502 kts 130°
2026-05-04 11:57 44.71547 14.26339 35122 ft 504 kts 130°
2026-05-04 11:57 44.67093 14.33907 35118 ft 504 kts 130°
2026-05-04 11:58 44.62614 14.41499 35123 ft 503 kts 130°
2026-05-04 11:58 44.58166 14.49018 35123 ft 504 kts 130°
2026-05-04 11:59 44.53663 14.56607 35124 ft 506 kts 130°
2026-05-04 11:59 44.49165 14.64170 35127 ft 506 kts 130°
2026-05-04 12:00 44.44652 14.71737 35130 ft 506 kts 130°
2026-05-04 12:00 44.40126 14.79308 35129 ft 505 kts 130°
2026-05-04 12:01 44.35634 14.86801 35131 ft 505 kts 130°
2026-05-04 12:02 44.19809 15.13039 35148 ft 507 kts 130°
2026-05-04 12:03 44.15246 15.20561 35155 ft 507 kts 130°
2026-05-04 12:03 44.10686 15.28057 35157 ft 506 kts 131°
2026-05-04 12:04 44.06153 15.35492 35154 ft 507 kts 130°
2026-05-04 12:04 44.01562 15.43001 35156 ft 509 kts 131°
2026-05-04 12:05 43.96978 15.50478 35151 ft 509 kts 131°
2026-05-04 12:05 43.92379 15.57960 35146 ft 509 kts 131°
2026-05-04 12:06 43.87769 15.65442 35140 ft 509 kts 131°
2026-05-04 12:06 43.83168 15.72888 35135 ft 511 kts 131°
2026-05-04 12:07 43.78535 15.80368 35135 ft 512 kts 131°
2026-05-04 12:07 43.73906 15.87821 35134 ft 512 kts 131°
2026-05-04 12:08 43.69254 15.95291 35132 ft 512 kts 131°
2026-05-04 12:08 43.64611 16.02728 35132 ft 513 kts 131°
2026-05-04 12:09 43.59935 16.10198 35135 ft 515 kts 131°
2026-05-04 12:09 43.55242 16.17678 35130 ft 515 kts 131°
2026-05-04 12:10 43.50555 16.25128 35130 ft 516 kts 131°
2026-05-04 12:10 43.45856 16.32577 35129 ft 516 kts 131°
2026-05-04 12:11 43.41138 16.40037 35130 ft 517 kts 131°
2026-05-04 12:11 43.36404 16.47502 35129 ft 517 kts 131°
2026-05-04 12:12 43.31677 16.54940 35130 ft 517 kts 131°
2026-05-04 12:12 43.26932 16.62385 35135 ft 517 kts 131°
2026-05-04 12:14 43.08683 16.90839 35132 ft 520 kts 131°
2026-05-04 12:15 43.03884 16.98275 35135 ft 520 kts 131°
2026-05-04 12:15 42.99107 17.05659 35148 ft 520 kts 131°
2026-05-04 12:16 42.94318 17.13043 35137 ft 522 kts 131°
2026-05-04 12:16 42.89478 17.20487 35137 ft 523 kts 131°
2026-05-04 12:17 42.84651 17.27890 35139 ft 523 kts 131°
2026-05-04 12:17 42.79817 17.35286 35140 ft 523 kts 131°
2026-05-04 12:18 42.74961 17.42693 35143 ft 523 kts 131°
2026-05-04 12:18 42.70112 17.50074 35144 ft 525 kts 131°
2026-05-04 12:19 42.65245 17.57467 35142 ft 525 kts 131°
2026-05-04 12:19 42.60380 17.64836 35144 ft 526 kts 131°
2026-05-04 12:20 42.55475 17.72246 35144 ft 525 kts 131°
2026-05-04 12:20 42.50603 17.79587 35148 ft 526 kts 131°
2026-05-04 12:21 42.45683 17.86982 35143 ft 527 kts 131°
2026-05-04 12:21 42.40762 17.94359 35152 ft 527 kts 131°
2026-05-04 12:22 42.35868 18.01678 35161 ft 528 kts 131°
2026-05-04 12:22 42.30917 18.09063 35155 ft 528 kts 131°
2026-05-04 12:23 42.25989 18.16396 35150 ft 528 kts 131°
2026-05-04 12:23 42.21068 18.23699 35138 ft 528 kts 131°
2026-05-04 12:24 42.16109 18.31040 35134 ft 528 kts 131°
2026-05-04 12:24 42.11178 18.38323 35144 ft 528 kts 131°
2026-05-04 12:25 42.06200 18.45656 35138 ft 529 kts 131°
2026-05-04 12:25 42.01238 18.52962 35136 ft 530 kts 130°
2026-05-04 12:26 41.96407 18.60431 35139 ft 530 kts 129°
2026-05-04 12:26 41.91667 18.67975 35140 ft 530 kts 128°
2026-05-04 12:27 41.86997 18.75661 35127 ft 529 kts 127°
2026-05-04 12:27 41.82362 18.83329 35138 ft 531 kts 127°
2026-05-04 12:28 41.77679 18.91019 35136 ft 532 kts 127°
2026-05-04 12:28 41.72995 18.98663 35130 ft 532 kts 127°
2026-05-04 12:29 41.68296 19.06304 35130 ft 532 kts 127°
2026-05-04 12:29 41.63594 19.13931 35148 ft 532 kts 127°
2026-05-04 12:30 41.58898 19.21531 35121 ft 532 kts 127°
2026-05-04 12:30 41.54170 19.29165 35129 ft 534 kts 127°
2026-05-04 12:31 41.49419 19.36817 35127 ft 534 kts 127°
2026-05-04 12:31 41.44682 19.44425 35127 ft 534 kts 127°
2026-05-04 12:32 41.37563 19.55825 35120 ft 533 kts 127°
2026-05-04 12:33 41.32827 19.63384 35121 ft 533 kts 127°
2026-05-04 12:33 41.28051 19.70989 35123 ft 534 kts 127°
2026-05-04 12:34 41.23279 19.78571 35124 ft 535 kts 127°
2026-05-04 12:34 41.18515 19.86117 35112 ft 534 kts 127°
2026-05-04 12:35 41.13743 19.93657 35112 ft 533 kts 127°
2026-05-04 12:35 41.08951 20.01212 35093 ft 533 kts 127°
2026-05-04 12:36 41.04184 20.08710 35089 ft 533 kts 128°
2026-05-04 12:36 40.99413 20.16195 35102 ft 533 kts 127°
2026-05-04 12:37 40.94621 20.23692 35099 ft 532 kts 127°
2026-05-04 12:37 40.89844 20.31149 35100 ft 532 kts 127°
2026-05-04 12:38 40.85069 20.38585 35103 ft 532 kts 127°
2026-05-04 12:38 40.80288 20.46020 35102 ft 532 kts 127°
2026-05-04 12:39 40.75474 20.53480 35108 ft 531 kts 127°
2026-05-04 12:39 40.70702 20.60850 35103 ft 533 kts 128°
2026-05-04 12:40 40.65879 20.68285 35103 ft 533 kts 128°
2026-05-04 12:40 40.61055 20.75707 35107 ft 533 kts 128°
2026-05-04 12:41 40.56217 20.83131 35114 ft 533 kts 127°
2026-05-04 12:41 40.51395 20.90514 35104 ft 533 kts 127°
2026-05-04 12:42 40.46218 20.97528 35107 ft 536 kts 136°
2026-05-04 12:42 40.40573 21.03896 35107 ft 539 kts 138°
2026-05-04 12:43 40.34781 21.10196 35105 ft 539 kts 138°
2026-05-04 12:43 40.29018 21.16434 35116 ft 539 kts 138°
2026-05-04 12:44 40.23239 21.22702 35107 ft 537 kts 138°
2026-05-04 12:44 40.17473 21.28960 35106 ft 538 kts 138°
2026-05-04 12:45 40.11712 21.35200 35105 ft 539 kts 138°
2026-05-04 12:45 40.05944 21.41433 35108 ft 540 kts 138°
2026-05-04 12:46 40.00172 21.47657 35103 ft 540 kts 138°
2026-05-04 12:46 39.94366 21.53902 35108 ft 539 kts 139°
2026-05-04 12:47 39.88593 21.60098 35110 ft 541 kts 139°
2026-05-04 12:47 39.82760 21.66343 35110 ft 542 kts 139°
2026-05-04 12:48 39.76921 21.72581 35110 ft 542 kts 139°
2026-05-04 12:48 39.71094 21.78792 35111 ft 542 kts 139°
2026-05-04 12:49 39.65281 21.84974 35104 ft 541 kts 139°
2026-05-04 12:49 39.59439 21.91173 35110 ft 544 kts 139°
2026-05-04 12:50 39.53577 21.97380 35106 ft 544 kts 139°
2026-05-04 12:50 39.47736 22.03550 35106 ft 544 kts 139°
2026-05-04 12:51 39.41868 22.09733 35110 ft 544 kts 139°
2026-05-04 12:51 39.35964 22.15942 35118 ft 545 kts 139°
2026-05-04 12:52 39.30096 22.22098 35116 ft 543 kts 139°
2026-05-04 12:52 39.24236 22.28233 35116 ft 543 kts 139°
2026-05-04 12:53 39.18393 22.34337 35118 ft 543 kts 139°
2026-05-04 12:53 39.12505 22.40474 35115 ft 543 kts 139°
2026-05-04 12:54 39.06616 22.46599 35147 ft 546 kts 139°
2026-05-04 12:54 39.00697 22.52742 35143 ft 546 kts 139°
2026-05-04 12:55 38.94811 22.58835 35121 ft 546 kts 139°
2026-05-04 12:55 38.88869 22.64975 35115 ft 546 kts 140°
2026-05-04 12:56 38.82950 22.71076 35109 ft 547 kts 140°
2026-05-04 12:56 38.77001 22.77195 35132 ft 549 kts 140°
2026-05-04 12:57 38.71075 22.83275 35123 ft 547 kts 140°
2026-05-04 12:57 38.65126 22.89371 35118 ft 546 kts 140°
2026-05-04 12:58 38.59214 22.95411 35115 ft 545 kts 140°
2026-05-04 12:58 38.53285 23.01457 35121 ft 548 kts 140°
2026-05-04 12:59 38.47282 23.07562 35122 ft 549 kts 140°
2026-05-04 12:59 38.41326 23.13607 35128 ft 548 kts 140°
2026-05-04 13:00 38.35364 23.19646 35123 ft 548 kts 140°
2026-05-04 13:00 38.29381 23.25690 35127 ft 549 kts 140°
2026-05-04 13:01 38.23390 23.31734 35124 ft 548 kts 140°
2026-05-04 13:01 38.17422 23.37742 35122 ft 548 kts 140°
2026-05-04 13:02 38.11456 23.43734 35149 ft 548 kts 140°
2026-05-04 13:02 38.06466 23.48734 35129 ft 546 kts 141°
2026-05-04 13:03 38.00516 23.54686 35129 ft 547 kts 140°
2026-05-04 13:03 37.94510 23.60682 35128 ft 548 kts 141°
2026-05-04 13:04 37.88535 23.66634 35128 ft 548 kts 141°
2026-05-04 13:04 37.82537 23.72595 35127 ft 548 kts 141°
2026-05-04 13:05 37.76567 23.78515 35115 ft 546 kts 141°
2026-05-04 13:05 37.70587 23.84434 35127 ft 546 kts 141°
2026-05-04 13:06 37.64605 23.90342 35127 ft 547 kts 141°
2026-05-04 13:06 37.58621 23.96240 35127 ft 547 kts 141°
2026-05-04 13:07 37.52612 24.02149 35127 ft 547 kts 141°
2026-05-04 13:07 37.46620 24.08030 35144 ft 547 kts 141°
2026-05-04 13:08 37.40626 24.13901 35126 ft 548 kts 141°
2026-05-04 13:08 37.34593 24.19796 35125 ft 548 kts 141°
2026-05-04 13:09 37.28579 24.25661 35127 ft 548 kts 141°
2026-05-04 13:09 37.22538 24.31541 35124 ft 548 kts 142°
2026-05-04 13:10 37.16529 24.37378 35121 ft 548 kts 142°
2026-05-04 13:10 37.10491 24.43229 35119 ft 547 kts 142°
2026-05-04 13:11 37.04465 24.49058 35121 ft 547 kts 142°
2026-05-04 13:11 36.98480 24.54835 35114 ft 547 kts 142°
2026-05-04 13:12 36.92462 24.60633 35097 ft 547 kts 142°
2026-05-04 13:12 36.86399 24.66461 35114 ft 549 kts 142°
2026-05-04 13:13 36.80365 24.72250 35113 ft 549 kts 143°
2026-05-04 13:13 36.74288 24.78067 35110 ft 549 kts 143°
2026-05-04 13:14 36.68220 24.83865 35114 ft 549 kts 143°
2026-05-04 13:14 36.62170 24.89635 35110 ft 550 kts 143°
2026-05-04 13:15 36.56090 24.95420 35115 ft 552 kts 143°
2026-05-04 13:15 36.49980 25.01221 35131 ft 553 kts 143°
2026-05-04 13:16 36.43890 25.06992 35110 ft 551 kts 143°
2026-05-04 13:16 36.37777 25.12774 35110 ft 550 kts 143°
2026-05-04 13:17 36.31714 25.18496 35112 ft 552 kts 144°
2026-05-04 13:17 36.25569 25.24284 35110 ft 553 kts 144°
2026-05-04 13:18 36.19460 25.30026 35110 ft 553 kts 144°
2026-05-04 13:18 36.13296 25.35809 35118 ft 553 kts 144°
2026-05-04 13:19 36.07196 25.41521 35080 ft 551 kts 144°
2026-05-04 13:19 36.01065 25.47249 35108 ft 556 kts 144°
2026-05-04 13:20 35.94900 25.52998 35108 ft 557 kts 144°
2026-05-04 13:20 35.88714 25.58755 35110 ft 556 kts 144°
2026-05-04 13:21 35.82523 25.64505 35133 ft 556 kts 144°
2026-05-04 13:21 35.76376 25.70205 35104 ft 555 kts 145°
2026-05-04 13:22 35.70166 25.75949 35116 ft 557 kts 145°
2026-05-04 13:22 35.63978 25.81661 35108 ft 557 kts 145°
2026-05-04 13:23 35.57775 25.87376 35106 ft 557 kts 145°
2026-05-04 13:23 35.51572 25.93081 35105 ft 557 kts 145°
2026-05-04 13:24 35.45407 25.98739 35103 ft 556 kts 146°
2026-05-04 13:24 35.39199 26.04426 35097 ft 554 kts 146°
2026-05-04 13:25 35.29954 26.12873 35099 ft 554 kts 146°
2026-05-04 13:25 35.23740 26.18537 35091 ft 554 kts 146°
2026-05-04 13:26 35.17574 26.24144 35092 ft 557 kts 146°
2026-05-04 13:26 35.11329 26.29814 35092 ft 558 kts 146°
2026-05-04 13:27 35.05093 26.35467 35091 ft 557 kts 146°
2026-05-04 13:27 34.98891 26.41077 35086 ft 557 kts 146°
2026-05-04 13:28 34.92653 26.46708 35083 ft 557 kts 146°
2026-05-04 13:28 34.86420 26.52323 35076 ft 557 kts 147°
2026-05-04 13:29 34.80206 26.57911 35082 ft 557 kts 147°
2026-05-04 13:29 34.73950 26.63526 35075 ft 556 kts 147°
2026-05-04 13:30 34.67746 26.69084 35077 ft 556 kts 147°
2026-05-04 13:30 34.61509 26.74659 35066 ft 556 kts 147°
2026-05-04 13:31 34.55253 26.80242 35075 ft 557 kts 147°
2026-05-04 13:31 34.49013 26.85799 35077 ft 557 kts 147°
2026-05-04 13:32 34.42786 26.91337 35071 ft 556 kts 148°
2026-05-04 13:32 34.36554 26.96866 35077 ft 556 kts 148°
2026-05-04 13:33 34.30290 27.02413 35064 ft 556 kts 148°
2026-05-04 13:33 34.24067 27.07913 35078 ft 555 kts 148°
2026-05-04 13:34 34.17836 27.13410 35073 ft 555 kts 148°
2026-05-04 13:34 34.11608 27.18895 35077 ft 555 kts 148°
2026-05-04 13:35 34.02252 27.27115 35067 ft 554 kts 148°
2026-05-04 13:36 33.95985 27.32472 35076 ft 549 kts 155°
2026-05-04 13:36 33.89179 27.36547 35075 ft 543 kts 161°
2026-05-04 13:37 33.82291 27.40228 35074 ft 542 kts 162°
2026-05-04 13:37 33.75349 27.43847 35049 ft 542 kts 163°
2026-05-04 13:38 33.68460 27.47451 35086 ft 543 kts 163°
2026-05-04 13:38 33.61556 27.51080 35078 ft 541 kts 163°
2026-05-04 13:39 33.54691 27.54690 35081 ft 540 kts 163°
2026-05-04 13:39 33.47793 27.58310 35055 ft 540 kts 163°
2026-05-04 13:40 33.40918 27.61912 35083 ft 540 kts 163°
2026-05-04 13:40 33.34018 27.65519 35085 ft 539 kts 163°
2026-05-04 13:41 33.27170 27.69093 35089 ft 539 kts 163°
2026-05-04 13:41 33.20292 27.72676 35072 ft 539 kts 163°
2026-05-04 13:42 33.09969 27.78044 35085 ft 538 kts 163°
2026-05-04 13:42 33.03123 27.81596 35089 ft 537 kts 163°
2026-05-04 13:43 32.96264 27.85148 35087 ft 537 kts 163°
2026-05-04 13:43 32.89428 27.88683 35080 ft 535 kts 163°
2026-05-04 13:44 32.82628 27.92194 35096 ft 534 kts 163°
2026-05-04 13:44 32.75818 27.95702 35097 ft 534 kts 163°
2026-05-04 13:45 32.68974 27.99222 35096 ft 534 kts 163°
2026-05-04 13:45 32.62171 28.02716 35085 ft 534 kts 163°
2026-05-04 13:46 32.55345 28.06216 35086 ft 534 kts 163°
2026-05-04 13:46 32.48536 28.09702 35095 ft 532 kts 163°
2026-05-04 13:47 32.41740 28.13176 35097 ft 532 kts 163°
2026-05-04 13:47 32.34971 28.16630 35094 ft 529 kts 163°
2026-05-04 13:48 32.28205 28.20076 35094 ft 528 kts 163°
2026-05-04 13:48 32.21494 28.23488 35094 ft 528 kts 163°
2026-05-04 13:49 32.14725 28.26923 35097 ft 528 kts 163°
2026-05-04 13:49 32.08001 28.30332 35096 ft 526 kts 163°
2026-05-04 13:50 32.02391 28.33172 35100 ft 525 kts 163°
2026-05-04 13:50 31.95678 28.36565 35102 ft 525 kts 163°
2026-05-04 13:51 31.88969 28.39951 35100 ft 525 kts 163°